Theta_e
332 334 335 335 333 334 333 333 332 331 331 332 331 330 330 330 329 328 327 327 328 328 326 326 326 326 326 327 326 325 325 325 324 323 323 322 321 320 320 319 318 316 315 314 312 311 310 310 308 305 301 296
330 332 334 334 333 334 333 332 330 330 330 329 329 328 328 328 327 326 326 326 327 327 326 326 325 326 327 327 326 324 323 323 322 321 320 319 319 318 318 317 316 315 313 312 310 309 308 307 306 304 301 294
326 327 330 332 332 332 332 332 331 330 329 329 328 328 328 326 325 324 325 325 326 326 324 324 324 325 325 325 324 323 321 321 319 319 317 317 317 317 316 315 314 313 311 310 309 308 306 304 302 300 296 293
321 325 325 328 329 329 330 330 329 329 328 326 325 325 324 322 318 318 318 320 320 322 322 322 320 323 323 323 322 321 320 319 318 317 315 315 314 314 313 313 312 311 309 308 307 306 304 301 298 292 291 291
318 321 322 323 324 325 327 327 327 327 324 319 318 317 316 314 309 307 308 309 309 315 310 317 319 322 322 322 320 320 319 318 317 316 314 313 311 309 307 305 306 307 307 306 305 303 300 297 291 291 291 291
314 316 320 315 316 318 322 322 321 318 312 313 308 311 308 304 306 303 301 303 310 306 309 312 317 320 321 320 318 318 318 317 316 315 313 312 310 308 305 301 290 293 300 302 302 300 297 290 290 290 290 290
311 312 312 311 313 314 317 316 314 310 309 305 304 301 300 302 301 299 299 301 304 305 310 310 315 318 319 317 316 316 315 315 314 313 312 310 307 305 300 291 289 289 288 290 296 294 290 288 289 289 289 289
309 310 309 311 311 312 311 309 308 305 303 302 300 298 297 297 298 298 298 307 309 309 304 308 313 315 315 315 313 312 310 313 311 310 308 306 303 298 293 289 289 288 289 288 288 288 288 288 288 288 288 288
308 307 307 307 307 308 306 305 303 302 300 299 297 295 296 295 297 297 299 298 298 297 296 294 294 296 295 295 296 299 291 291 293 290 288 290 292 289 290 289 289 289 288 289 288 287 287 288 287 287 288 287
308 306 306 305 305 304 304 303 301 299 298 296 295 294 295 296 296 297 296 294 294 293 292 290 289 290 290 290 291 292 288 288 288 288 288 289 289 288 288 288 288 289 290 287 287 287 287 287 287 286 286 286
305 305 305 304 303 304 301 299 299 297 295 295 294 294 295 295 295 295 293 292 291 290 289 288 287 288 288 288 287 289 288 288 288 288 287 287 287 287 287 287 287 287 286 286 286 286 286 286 286 286 286 286
304 303 303 303 303 303 302 299 299 296 294 294 294 294 295 295 295 294 292 291 290 289 287 288 287 287 287 287 287 289 288 288 287 287 286 287 286 287 287 287 286 286 286 285 285 286 286 286 285 285 285 285
303 302 301 301 301 301 302 299 299 296 294 293 293 293 294 295 293 291 291 290 289 287 288 287 287 286 286 287 287 288 287 288 287 287 286 287 286 285 286 286 286 286 285 285 285 285 285 285 285 285 285 285
302 301 301 300 300 300 300 298 297 295 294 293 293 293 294 294 293 291 291 290 288 287 287 286 286 287 287 287 287 287 287 287 286 286 285 285 285 285 285 286 288 286 285 285 285 285 285 285 285 285 285 285
302 301 301 300 299 299 298 297 295 295 294 293 293 293 293 293 293 291 290 289 288 287 286 286 286 286 286 286 286 287 287 286 286 285 285 286 285 285 284 285 286 285 284 284 284 285 284 284 285 285 285 285
301 300 300 299 298 298 297 295 294 294 294 294 293 293 293 292 291 292 289 289 288 287 286 286 285 285 286 286 286 286 286 286 286 285 285 285 285 284 284 285 284 285 283 283 284 283 284 284 284 284 285 285
301 300 299 298 297 297 296 295 294 294 294 293 293 293 293 292 291 292 290 289 289 290 286 285 285 285 286 286 286 286 286 286 286 286 286 285 285 284 284 284 284 285 283 283 283 283 284 283 284 284 284 284
299 299 298 298 296 296 295 295 294 294 294 293 293 293 292 291 291 291 289 289 288 288 286 285 285 285 285 285 285 286 286 285 285 285 284 285 285 288 284 283 283 283 283 283 282 283 283 283 283 283 284 284
298 297 297 296 295 295 295 294 294 294 293 293 292 293 292 291 291 290 289 289 289 287 286 285 284 284 284 285 285 285 285 285 285 285 284 283 282 282 282 283 285 282 282 282 283 283 284 283 284 283 283 284
298 297 296 295 296 294 294 294 294 293 293 293 292 292 292 291 291 290 289 289 288 288 286 285 284 284 284 285 285 285 284 285 285 284 284 284 282 282 282 283 281 282 282 282 283 283 283 282 285 282 282 284
296 295 294 294 294 293 293 294 293 293 292 292 291 291 292 291 291 290 289 289 288 288 287 286 284 283 284 285 284 284 283 284 285 284 284 283 284 282 282 281 281 281 282 282 282 282 281 282 283 282 283 284
296 294 293 293 292 293 292 293 293 292 291 291 291 291 292 291 291 291 289 289 288 288 287 286 285 284 284 285 284 283 283 283 284 282 282 282 282 281 281 280 280 281 281 282 282 282 282 282 281 282 282 285
296 294 292 291 291 291 291 291 291 291 290 291 291 291 291 291 291 291 289 289 288 287 287 286 285 284 284 284 283 283 283 283 283 282 281 282 282 281 281 281 280 281 282 281 282 282 281 281 281 282 285 282
295 293 292 291 289 289 291 291 291 290 291 290 291 291 291 291 291 291 289 288 288 288 287 286 285 284 284 284 284 283 283 283 282 282 282 281 282 282 281 281 280 280 282 280 280 283 281 281 282 284 283 282
294 292 291 291 291 291 291 291 291 291 291 291 291 291 291 291 291 290 289 288 288 287 288 286 284 284 284 284 284 284 284 284 282 282 282 283 282 280 279 280 279 280 279 280 280 279 280 281 281 286 282 280
295 294 294 293 292 292 292 291 291 291 291 291 291 290 290 290 290 290 289 289 288 287 287 285 284 284 284 284 284 284 283 282 283 283 282 282 280 280 278 279 279 280 279 279 278 279 280 279 279 283 281 281
295 295 294 294 293 293 291 292 292 291 291 291 290 289 289 290 290 289 289 288 288 287 287 286 285 284 284 284 284 283 282 282 281 282 282 282 281 279 280 280 280 279 278 278 279 279 279 278 278 282 279 278
295 294 293 291 289 290 290 289 290 289 289 289 289 288 289 289 289 289 289 288 288 288 287 286 285 284 284 283 284 284 283 282 281 281 282 281 281 281 279 278 279 281 279 278 280 280 278 276 278 276 278 277
294 293 290 289 288 288 287 287 288 287 286 288 289 289 288 289 289 289 289 288 288 288 287 286 285 284 284 283 283 283 283 282 282 282 282 282 280 280 280 279 278 280 279 278 281 280 276 276 279 277 277 276
293 293 291 289 289 287 288 287 286 288 288 287 288 289 289 288 289 288 288 288 287 287 287 286 285 284 284 283 283 283 283 282 281 281 282 282 281 280 279 280 278 277 281 280 280 278 277 278 278 276 275 277
293 292 291 291 291 291 290 289 289 290 290 289 290 290 289 288 288 288 288 287 287 287 287 286 285 284 284 284 283 284 282 282 282 282 282 282 280 280 281 279 278 278 278 278 278 278 278 280 278 277 277 276
Wind_Speed
10 10 12 13 15 13 14 14 14 14 14 13 13 13 13 13 13 13 13 13 13 13 13 12 12 12 12 12 12 13 13 13 12 13 13 12 12 12 12 12 12 12 13 13 13 13 13 13 12 12 9 6
9 9 11 11 11 12 12 12 14 14 14 13 13 13 14 13 13 13 13 13 13 13 13 13 13 13 13 13 13 13 13 13 13 12 12 12 12 12 12 12 12 12 13 13 13 13 13 13 12 11 9 5
6 9 9 11 11 11 11 11 12 13 12 11 13 14 12 11 11 11 11 12 13 13 13 12 12 13 13 13 13 13 13 13 13 13 12 12 12 12 12 12 12 13 13 13 13 13 12 12 12 12 7 5
5 7 9 10 10 11 11 11 11 12 11 11 11 11 11 11 8 8 7 10 8 12 13 11 7 12 13 13 13 13 13 13 13 13 12 12 12 12 12 12 12 12 12 12 13 12 12 11 10 6 5 5
5 6 8 8 9 10 11 11 11 11 12 10 10 9 9 9 5 4 4 5 5 7 5 8 10 11 13 14 13 13 13 13 13 13 13 13 13 13 12 12 12 12 12 12 12 12 11 10 6 5 5 5
4 4 6 5 5 6 8 9 10 8 6 7 6 9 7 5 5 5 4 4 6 4 5 6 9 11 13 14 13 13 13 13 13 13 13 13 13 13 12 11 6 6 9 11 11 10 10 6 5 5 5 5
4 5 4 5 5 5 7 6 6 6 6 6 6 5 5 5 5 5 4 4 4 4 7 6 9 11 13 14 14 13 13 13 13 13 13 13 13 12 11 6 6 5 5 5 9 7 6 5 5 4 5 5
5 5 5 6 5 6 6 5 6 6 6 6 6 6 5 6 5 5 4 5 7 7 5 6 8 10 10 11 10 11 8 10 12 13 13 13 11 8 5 5 5 5 4 5 4 5 5 5 5 5 5 5
6 5 6 5 6 6 5 5 6 6 6 5 6 6 6 5 5 5 4 4 4 4 4 4 4 5 5 5 6 7 6 6 6 6 6 6 6 5 5 5 5 4 5 5 5 5 5 5 4 5 5 5
6 6 7 6 6 6 5 6 6 6 6 6 6 6 6 6 6 6 6 4 5 4 5 5 5 5 5 5 5 4 6 5 5 5 5 6 6 5 4 4 4 3 3 4 4 5 4 5 4 5 5 5
7 7 6 6 6 7 6 6 6 6 6 6 6 6 6 8 7 6 6 6 5 6 5 5 5 5 5 6 6 4 7 6 5 6 6 6 5 4 4 4 3 3 3 3 4 4 4 4 4 5 5 5
7 6 7 7 6 6 7 7 7 6 6 6 7 6 7 6 7 8 7 6 6 6 4 5 5 5 5 5 5 4 6 7 5 5 5 5 4 4 3 3 3 3 3 3 3 4 4 4 4 4 4 3
7 7 7 7 7 8 7 7 7 7 6 6 6 6 7 6 8 6 6 7 6 5 5 4 5 5 6 5 6 5 5 6 6 5 5 5 4 4 3 3 3 3 3 3 3 4 4 3 3 3 4 3
8 8 9 8 8 8 7 7 7 6 7 7 7 7 6 7 7 7 8 7 6 6 6 5 4 4 5 6 5 5 6 5 6 6 5 4 4 4 3 3 3 3 4 3 3 4 4 4 3 3 3 3
10 8 9 9 7 7 8 7 7 7 7 7 7 7 7 6 6 6 6 6 7 5 5 5 5 5 4 6 5 4 5 3 5 5 5 5 5 5 5 4 3 4 5 4 4 3 4 3 3 3 2 2
10 11 10 9 8 8 7 7 7 7 7 8 7 7 7 7 7 6 6 7 6 6 6 5 5 5 5 5 4 3 4 5 4 4 3 3 3 3 3 4 3 2 5 4 4 3 3 2 2 2 1 2
12 10 9 9 9 8 8 7 7 8 8 8 7 7 8 7 7 7 8 7 7 6 6 5 5 5 4 4 4 3 4 4 4 5 4 3 3 4 3 3 2 2 3 5 3 3 3 2 3 1 2 2
11 11 10 9 9 8 8 8 9 9 8 8 7 7 8 8 8 7 7 8 7 6 6 6 5 5 5 4 4 4 5 6 5 6 5 4 4 3 3 4 2 3 5 4 3 4 2 3 2 1 2 2
14 11 11 11 10 10 11 9 10 9 8 8 8 7 8 8 8 8 8 7 8 7 7 6 6 5 6 5 4 5 5 5 4 4 5 4 5 3 4 3 3 3 4 3 5 4 3 3 2 2 2 1
14 13 12 11 10 9 10 9 10 9 9 8 7 8 8 8 8 8 8 8 8 8 7 7 7 6 5 4 5 5 4 4 5 4 4 1 3 6 2 3 3 2 3 3 4 3 3 3 2 3 2 3
11 11 11 11 11 12 11 10 10 9 8 8 8 8 8 8 9 9 9 9 9 8 8 7 6 6 5 4 5 5 5 5 4 4 4 1 0 1 4 3 3 2 3 4 3 3 3 3 3 3 3 2
13 11 10 9 8 9 10 10 8 7 8 8 8 8 9 10 10 9 9 9 9 8 8 7 7 6 6 6 5 5 5 5 4 3 3 4 2 2 4 4 3 2 2 3 3 4 4 4 4 3 3 3
10 8 6 5 6 6 7 7 7 7 8 8 8 10 10 11 10 10 10 10 10 9 8 7 7 7 6 6 6 6 6 5 5 4 3 4 4 3 3 4 2 2 2 4 4 5 4 3 3 3 3 3
9 8 9 9 5 6 8 8 8 8 9 8 10 11 11 11 10 10 10 10 10 9 9 8 8 7 7 7 7 7 7 7 7 8 6 4 5 5 3 3 1 1 3 4 6 4 5 4 3 4 4 5
13 13 10 8 12 14 12 12 11 11 11 11 11 11 11 11 10 10 10 9 10 10 9 8 7 8 7 7 7 8 9 7 7 5 5 6 3 4 3 1 1 0 2 4 3 3 5 5 3 2 2 4
14 14 16 18 18 16 13 13 13 13 12 12 10 10 10 10 9 10 10 10 10 9 10 9 9 9 9 9 8 7 4 5 5 5 5 6 4 1 3 2 2 1 2 3 3 4 1 4 3 2 1 2
15 13 11 11 7 10 8 8 8 7 8 8 9 9 9 8 9 10 9 10 11 10 10 10 10 10 9 9 8 8 8 7 7 7 8 8 8 5 1 1 1 1 2 4 1 2 5 0 1 1 1 1
11 9 6 4 3 4 4 5 4 4 5 7 6 8 9 10 11 11 11 11 11 10 10 11 11 9 9 9 9 10 10 9 9 8 8 8 5 6 5 2 2 1 1 4 8 2 1 1 2 1 4 2
10 9 7 6 5 5 5 4 6 5 5 8 8 8 10 12 10 11 11 11 12 11 12 11 10 10 10 10 9 9 9 10 11 11 9 10 8 9 8 7 2 1 1 1 2 6 5 2 0 4 1 1
11 12 12 11 10 10 10 9 9 14 17 12 13 16 10 10 12 12 12 11 12 12 11 11 11 11 11 10 10 9 9 8 6 8 10 11 10 9 4 7 6 3 0 1 2 1 1 3 3 4 2 2
12 12 12 16 16 15 16 17 14 11 9 12 11 7 10 10 9 11 12 12 12 12 11 11 11 11 11 11 10 9 8 8 11 10 10 7 7 8 6 6 6 9 6 2 2 2 2 3 2 4 7 5
Wind_Direction
198 198 193 197 193 193 191 189 188 186 185 183 181 180 177 171 169 166 164 160 156 152 149 146 140 134 132 129 125 122 119 114 110 106 103 98 95 92 90 87 84 82 78 75 72 69 64 62 58 55 50 47
191 198 194 194 194 188 192 188 187 187 186 184 182 180 177 171 167 164 161 159 157 153 149 142 140 137 134 131 126 121 116 113 110 107 103 100 97 94 90 86 84 80 76 73 70 64 60 57 55 54 54 49
192 192 194 192 190 191 183 181 183 185 185 180 182 178 168 162 161 161 158 158 156 152 144 141 140 139 135 133 127 121 118 115 112 108 103 98 94 90 86 83 79 76 72 69 67 63 58 52 49 48 45 42
186 189 193 194 187 182 176 181 182 181 175 175 175 169 156 153 151 148 149 150 147 144 146 143 141 141 138 133 128 125 121 118 114 111 107 102 96 90 83 78 75 73 70 67 64 63 59 54 49 44 36 33
183 188 185 188 180 178 178 183 176 172 166 166 160 148 144 134 123 121 122 117 126 127 124 139 142 139 139 132 129 124 120 117 114 111 107 103 97 90 81 71 64 61 65 63 62 60 58 55 50 43 42 35
182 184 179 176 175 173 175 176 171 162 148 141 133 132 129 129 130 125 123 126 121 127 129 126 135 139 136 131 127 124 121 117 114 109 105 100 94 87 80 72 64 50 49 54 57 57 58 54 51 42 42 41
182 182 174 177 173 173 171 170 155 146 144 139 138 134 137 135 131 133 135 135 137 137 132 129 131 133 135 133 129 125 120 117 112 108 104 98 93 85 78 71 69 65 61 49 48 48 48 55 47 48 45 44
181 182 174 175 172 170 163 154 149 147 145 144 143 144 143 139 139 135 142 149 142 132 124 119 112 115 113 107 96 96 94 99 104 101 97 94 86 78 75 77 68 73 67 63 56 51 48 50 42 42 42 43
184 178 170 177 174 166 159 151 150 152 149 151 148 150 147 145 141 144 150 137 124 118 116 107 104 102 108 108 108 103 103 95 89 83 84 75 73 69 73 70 59 63 61 54 54 54 47 48 42 38 34 33
176 165 181 182 179 164 162 160 160 158 159 156 159 157 153 146 142 149 143 141 140 135 133 131 136 133 130 125 123 120 117 107 102 89 87 91 85 72 73 75 70 60 73 74 66 64 56 52 47 40 33 28
174 186 184 177 174 169 178 165 165 174 172 169 164 165 161 153 156 154 154 153 154 153 148 148 151 150 146 138 133 141 120 105 97 102 100 96 94 83 78 69 62 63 60 67 79 70 64 55 51 45 37 28
185 184 180 183 177 181 174 169 182 180 179 166 172 173 170 159 159 160 162 166 162 165 153 160 157 149 142 134 126 121 115 118 109 104 103 105 97 96 89 94 84 74 71 67 73 80 65 58 50 43 36 30
187 181 183 183 185 187 179 184 186 178 169 177 177 177 171 162 159 162 163 165 168 153 165 159 154 153 145 133 133 124 116 128 131 124 125 124 125 116 118 121 121 119 93 79 71 80 72 63 54 43 35 31
185 188 189 193 192 185 181 190 181 170 182 182 174 180 179 173 165 170 169 166 161 163 169 165 153 144 145 139 139 133 138 146 137 143 133 129 133 137 146 145 160 136 117 88 77 71 73 58 54 44 37 29
195 185 198 195 189 185 191 180 174 183 185 183 187 181 173 171 169 163 162 162 164 166 162 163 158 153 144 138 151 144 139 138 140 138 146 153 154 158 157 158 161 147 113 99 78 73 75 71 65 47 31 38
194 195 197 191 189 194 187 173 185 186 186 191 188 176 175 172 169 164 164 162 167 166 164 167 165 157 154 162 154 144 138 139 128 132 129 131 142 159 154 136 127 128 110 93 86 89 80 87 79 57 45 56
197 193 191 189 193 189 182 183 184 190 193 192 186 177 176 173 168 169 166 169 169 166 164 161 161 163 171 161 152 137 135 127 122 118 127 138 151 148 149 126 103 117 95 83 73 79 74 84 70 58 70 66
194 194 191 191 189 185 182 188 188 197 193 188 185 181 178 172 173 169 167 162 166 159 159 160 168 170 172 163 151 138 136 139 147 143 144 158 139 126 117 96 68 76 57 47 64 61 55 64 53 50 60 64
198 191 191 188 187 187 187 187 192 193 188 187 186 178 180 177 175 170 168 168 163 164 163 164 171 180 178 158 150 148 156 146 148 145 152 154 123 106 84 84 66 74 80 60 50 40 40 41 42 33 53 40
195 193 191 189 187 186 187 188 193 191 190 187 178 182 179 180 176 172 171 169 166 164 171 171 177 180 162 161 151 152 149 143 153 149 140 154 149 119 88 92 54 42 62 54 52 39 45 32 48 49 39 47
196 191 190 189 189 189 185 191 193 191 182 179 181 180 181 181 180 177 174 172 171 166 170 172 173 170 166 158 156 153 156 155 156 152 148 143 4 87 141 114 113 36 48 48 44 39 49 35 46 54 45 50
191 190 185 187 187 186 190 195 192 184 178 186 182 179 187 181 182 179 176 173 172 171 171 169 167 161 162 158 154 153 156 161 150 146 150 134 51 83 113 119 117 94 46 65 57 52 44 29 48 41 48 47
181 175 174 164 169 180 189 192 190 179 185 186 183 191 187 182 184 179 177 175 171 168 166 164 165 164 166 159 157 155 158 157 160 152 150 147 109 72 84 130 145 139 102 76 75 65 37 37 42 37 62 58
176 171 177 176 161 184 201 191 186 188 192 186 194 196 186 186 184 180 178 175 171 167 165 166 170 168 164 166 161 165 169 176 176 171 154 150 137 122 81 42 67 80 110 83 79 73 49 48 43 68 72 64
178 180 179 183 195 202 192 190 189 192 196 195 199 191 189 185 184 179 175 173 167 172 167 167 162 162 171 170 173 180 190 177 170 166 157 146 131 133 111 78 13 94 123 119 75 36 60 44 30 44 69 70
187 190 188 186 194 194 187 185 188 199 197 199 194 190 189 185 181 177 176 172 174 171 169 167 170 174 177 174 182 183 165 166 166 154 154 156 107 41 131 165 204 216 123 40 148 147 77 13 356 40 17 10
195 193 195 194 193 190 191 203 206 204 194 183 184 184 183 181 180 176 177 176 176 173 177 175 171 181 173 178 171 167 175 174 177 176 173 179 159 136 59 137 198 179 202 143 131 109 93 24 63 359 347 20
191 184 177 170 115 161 148 174 160 156 152 174 164 180 182 189 183 180 182 175 177 179 178 177 180 171 174 180 180 178 175 181 185 179 183 185 184 151 137 178 194 124 174 152 140 96 122 178 124 339 250 303
171 154 143 129 85 101 90 79 145 153 190 186 185 185 194 194 181 183 180 178 182 180 182 181 178 175 179 178 181 179 182 187 191 187 186 180 174 190 160 176 182 164 84 96 293 146 110 66 38 218 207 46
169 175 170 162 163 170 181 186 179 196 198 181 191 202 189 184 188 181 182 180 182 185 179 182 181 179 175 180 180 186 190 185 170 187 188 193 187 192 216 152 156 127 91 70 49 21 129 159 171 178 225 121
174 178 184 187 190 188 188 194 207 202 186 190 198 185 185 190 183 187 183 184 184 185 183 180 181 181 182 181 183 183 176 184 194 193 194 177 189 199 170 147 151 164 169 106 32 48 59 81 74 130 132 199